This demonstration page uses our WeatherBlox Daily Observations layout. Learn more.

Left ArrowRight Arrow

38.89511, -77.03637

Hourly Observations for January 8, 2019

Temp ( °F °C ) Dew Point ( °F °C ) Humidity (%) Winds ( mph kmh ) Pressure ( in mb ) Visibility ( mi km ) Precip ( " mm )
12:52 am 00:52 Cloudy with Light Rain 39 3.9 33 0.6 79 79 Calm 30.24 1024 10 16 0.00 0.03
1:52 am 01:52 Cloudy with Light Rain 40 4.4 36 2.2 86 86 S 7 11 30.20 1023 9 14 0.04 1.02
2:43 am 02:43 Cloudy 41 5 37 2.8 86 86 S 10 17 30.18 1022 10 16 0.04 1.02
2:52 am 02:52 Cloudy 41 5 37 2.8 86 86 SSW 9 15 30.17 1022 10 16 0.04 1.02
3:15 am 03:15 Cloudy 41 5 37 2.8 86 86 SSW 7 11 30.18 1022 10 16 0.00 0.00
3:52 am 03:52 Cloudy 42 5.6 37 2.8 82 82 SSW 10 17 30.14 1021 10 16 0.00 0.00
4:23 am 04:23 Cloudy 42 5.6 37 2.8 82 82 SSW 9 15 30.12 1020 10 16 0.00 0.00
4:47 am 04:47 Cloudy 43 6 37 3 81 81 SSW 7 11 30.12 1020 10 16 0.00 0.00
4:52 am 04:52 Cloudy 42 5.6 37 2.8 82 82 S 6 9 30.10 1019 10 16 0.00 0.00
5:52 am 05:52 Mostly Cloudy 42 5.6 37 2.8 82 82 S 7 11 30.09 1019 10 16 0.00 0.00
6:52 am 06:52 Mostly Cloudy 42 5.6 36 2.2 79 79 SSW 8 13 30.07 1018 10 16 0.00 0.00
7:52 am 07:52 Mostly Cloudy 42 5.6 37 2.8 82 82 SSW 7 11 30.06 1018 10 16 0.00 0.00
8:52 am 08:52 Mostly Cloudy 43 6.1 38 3.3 82 82 SSW 8 13 30.06 1018 10 16 0.00 0.00
9:52 am 09:52 Mostly Cloudy 45 7.2 39 3.9 80 80 S 5 7 30.02 1017 10 16 0.00 0.00
10:52 am 10:52 Mostly Cloudy 46 7.8 39 3.9 77 77 VRB 5 7 30.00 1016 10 16 0.00 0.00
11:52 am 11:52 Cloudy 47 8.3 40 4.4 77 77 SSE 5 7 29.92 1013 10 16 0.00 0.00
12:52 pm 12:52 Cloudy 50 10 42 5.6 74 74 S 3 6 29.87 1011 10 16 0.00 0.00
1:52 pm 13:52 Cloudy 53 11.7 43 6.1 69 69 SSE 5 7 29.83 1010 10 16 0.00 0.00
2:28 pm 14:28 Partly Cloudy 56 13.3 44 6.7 65 65 SSE 8 13 29.80 1009 10 16 0.00 0.00
2:52 pm 14:52 Mostly Sunny 55 12.8 44 6.7 67 67 S 9 15 29.80 1009 10 16 0.00 0.00
3:52 pm 15:52 Mostly Sunny 57 13.9 45 7.2 64 64 SSW 6 9 29.78 1008 10 16 0.00 0.00
4:52 pm 16:52 Mostly Cloudy 56 13.3 44 6.7 65 65 SSW 6 9 29.76 1008 10 16 0.00 0.00
5:52 pm 17:52 Cloudy 58 14.4 45 7.2 62 62 SSW 8 13 29.75 1007 10 16 0.00 0.00
6:52 pm 18:52 Partly Cloudy 53 11.7 44 6.7 72 72 S 7 11 29.72 1007 10 16 0.00 0.03
7:52 pm 19:52 Mostly Clear 53 11.7 45 7.2 74 74 S 13 20 29.66 1004 10 16 0.00 0.00
8:52 pm 20:52 Mostly Cloudy 56 13.3 47 8.3 72 72 SSW 13 20 29.62 1003 10 16 0.00 0.00
9:30 pm 21:30 Cloudy with Light Rain 57 13.9 47 8.3 69 69 NW 22 35 29.71 1006 10 16 0.00 0.03
9:35 pm 21:35 Cloudy with Light Rain 55 12.8 47 8.3 74 74 NW 21 33 29.71 1006 3 5 0.01 0.25
9:39 pm 21:39 Cloudy with Heavy Rain 53 11.7 47 8.3 80 80 NW 22 35 29.71 1006 3 4 0.07 1.78
9:46 pm 21:46 Cloudy with Heavy Rain 54 12 46 8 77 77 WNW 14 22 29.71 1006 3 5 0.11 2.79
9:52 pm 21:52 Cloudy with Rain 53 11.7 47 8.3 80 80 WNW 12 19 29.70 1006 5 8 0.12 3.05
10:35 pm 22:35 Cloudy 54 12.2 47 8.3 77 77 WSW 7 11 29.68 1005 10 16 0.04 1.02
10:52 pm 22:52 Cloudy 53 11.7 46 7.8 77 77 SSW 7 11 29.69 1005 10 16 0.04 1.02
11:52 pm 23:52 Mostly Clear 54 12.2 40 4.4 59 59 WNW 16 26 29.70 1006 10 16 0.00 0.00

Powered by AerisWeather